Nome, AK

9:30 PM AKDT on July 23, 2017 (GMT -0800)
Nome

Weather History for PAOM - May, 2014

Change the Weather History Date:

Friday, May 9, 2014

  Actual Average Record
Temperature  
Mean Temperature 32 °F 34 °F  
Max Temperature 35 °F 40 °F 58 °F (1978)
Min Temperature 28 °F 28 °F 5 °F (1965)
Degree Days  
Heating Degree Days 33 31  
Month to date heating degree days 302 299  
Since 1 July heating degree days 11168 12609  
Cooling Degree Days 0 0  
Month to date cooling degree days 0 0  
Year to date cooling degree days 0 0  
Moisture  
Dew Point 31 °F    
Average Humidity 0    
Maximum Humidity 0    
Minimum Humidity 0    
Precipitation  
Precipitation 0.17 in 0.03 in 0.60 in (1943)
Month to date precipitation 0.32 0.25  
Year to date precipitation 3.47 3.53  
Snow  
Snow T in 0.10 in 2.00 in (2001)
Month to date snowfall 1.7 1.1  
Since 1 July snowfall 71.4 74.2  
Snow Depth 0.00 in    
Sea Level Pressure  
Sea Level Pressure 30.08 in    
Wind  
Wind Speed 9 mph (SE)    
Max Wind Speed 18 mph    
Max Gust Speed 22 mph    
Visibility 3 miles    
Events Fog , Rain , Snow    
T = Trace of Precipitation, MM = Missing Value Source: NWS Daily Summary

Daily Weather History Graph

Daily Weather History Graph

Search for Another Location

Airport or City:

Trip Planner

Search our weather history database for the weather conditions in past years. The results will help you decide how hot, cold, wet, or windy it might be!

Date:

Astronomy

May. 09, 2014 Rise Set
Actual Time 6:02 AM AKDT 11:56 PM AKDT
Civil Twilight 4:34 AM AKDT 1:27 AM AKDT
Nautical Twilight Sun does not set Sun does not set
Astronomical Twilight Sun does not set Sun does not set
Moon 5:12 PM AKDT (5/9) 5:12 AM AKDT (5/9)
Length of Visible Light 20h 52m
Length of Day
17h 54m
Waxing Gibbous, 75% of the Moon is Illuminated
May 9
Waxing Gibbous
May 14
Full
May 21
Last Quarter
May 28
New
Jun 5
First Quarter

Hourly Weather History & Observations

Time (AKDT) Temp. Windchill Dew Point Humidity Pressure Visibility Wind Dir Wind Speed Gust Speed Precip Events Conditions
12:25 AM 28.9 °F 21.9 °F 28.9 °F 100% 30.00 in 1.5 mi South 6.9 mph - N/A   Overcast
12:53 AM 28.0 °F 20.0 °F 28.0 °F 100% 30.02 in 1.5 mi South 8.1 mph - N/A   Overcast
1:04 AM 28.0 °F 20.8 °F 28.0 °F 100% 30.02 in 2.0 mi SSW 6.9 mph - 0.00 in Snow Light Snow
1:14 AM 28.0 °F 21.7 °F 28.0 °F 100% 30.02 in 3.0 mi SW 5.8 mph - 0.00 in Snow Light Snow
1:53 AM 28.0 °F 24.2 °F 26.1 °F 92% 30.03 in 3.0 mi SE 3.5 mph - 0.00 in   Overcast
2:53 AM 28.0 °F - 26.1 °F 92% 30.04 in 4.0 mi Calm Calm - 0.00 in   Overcast
3:53 AM 28.0 °F 24.2 °F 26.1 °F 92% 30.06 in 4.0 mi ENE 3.5 mph - 0.00 in Snow Light Snow
4:28 AM 28.0 °F 24.2 °F 27.0 °F 96% 30.05 in 2.0 mi East 3.5 mph - 0.00 in Snow Light Snow
4:45 AM 28.0 °F 24.2 °F 27.0 °F 96% 30.06 in 1.5 mi ESE 3.5 mph - 0.00 in Snow Light Snow
4:53 AM 28.0 °F 22.8 °F 27.0 °F 96% 30.06 in 1.5 mi East 4.6 mph - 0.00 in Snow Light Snow
5:24 AM 28.0 °F 22.8 °F 27.0 °F 96% 30.06 in 2.5 mi East 4.6 mph - 0.00 in Snow Light Snow
5:48 AM 28.4 °F 22.2 °F 28.4 °F 100% 30.06 in 8.0 mi ESE 5.8 mph - 0.00 in   Overcast
5:53 AM 28.9 °F 23.9 °F 28.0 °F 96% 30.07 in 7.0 mi ESE 4.6 mph - 0.00 in   Overcast
6:53 AM 28.4 °F 23.3 °F 28.4 °F 100% 30.07 in 10.0 mi East 4.6 mph - N/A   Overcast
7:09 AM 28.9 °F 21.1 °F 28.0 °F 96% 30.07 in 10.0 mi East 8.1 mph - N/A   Overcast
7:37 AM 28.9 °F 20.4 °F 28.0 °F 96% 30.07 in 5.0 mi East 9.2 mph - N/A   Overcast
7:53 AM 28.9 °F 19.8 °F 27.0 °F 92% 30.07 in 5.0 mi East 10.4 mph - N/A   Overcast
8:24 AM 28.9 °F 19.8 °F 28.0 °F 96% 30.08 in 2.0 mi East 10.4 mph - N/A   Overcast
8:37 AM 28.9 °F 18.6 °F 28.0 °F 96% 30.07 in 3.0 mi East 12.7 mph - N/A   Overcast
8:53 AM 28.9 °F 18.6 °F 28.0 °F 96% 30.08 in 4.0 mi East 12.7 mph - N/A   Overcast
9:09 AM 28.9 °F 18.6 °F 28.0 °F 96% 30.07 in 8.0 mi East 12.7 mph - N/A   Overcast
9:53 AM 30.0 °F 19.1 °F 28.9 °F 96% 30.08 in 8.0 mi East 15.0 mph - N/A   Overcast
10:11 AM 30.0 °F 19.1 °F 28.9 °F 96% 30.08 in 1.8 mi East 15.0 mph - N/A   Overcast
10:20 AM 30.0 °F 19.5 °F 30.0 °F 100% 30.08 in 1.2 mi East 13.8 mph - N/A   Overcast
10:53 AM 30.0 °F 19.5 °F 30.0 °F 100% 30.08 in 1.2 mi East 13.8 mph - N/A   Overcast
11:01 AM 30.0 °F 19.5 °F 30.0 °F 100% 30.08 in 1.0 mi East 13.8 mph - N/A   Overcast
11:11 AM 30.0 °F 19.1 °F 30.0 °F 100% 30.08 in 1.0 mi East 15.0 mph - N/A   Overcast
11:32 AM 30.0 °F 19.1 °F 30.0 °F 100% 30.08 in 1.0 mi East 15.0 mph - N/A   Mist
11:53 AM 30.9 °F 19.8 °F 30.0 °F 96% 30.08 in 1.2 mi East 16.1 mph - N/A   Overcast
12:53 PM 32.0 °F 21.2 °F 32.0 °F 100% 30.09 in 1.0 mi ESE 16.1 mph - 0.00 in   Light Drizzle
1:06 PM 33.1 °F 23.0 °F 33.1 °F 100% 30.09 in 0.8 mi East 15.0 mph - 0.00 in   Light Drizzle
1:22 PM 33.1 °F 23.4 °F 33.1 °F 100% 30.09 in 1.0 mi ESE 13.8 mph - 0.01 in   Light Drizzle
1:53 PM 34.0 °F 24.6 °F 34.0 °F 100% 30.09 in 1.5 mi ESE 13.8 mph - 0.01 in   Light Drizzle
2:03 PM 34.0 °F 24.6 °F 34.0 °F 100% 30.09 in 1.0 mi ESE 13.8 mph - 0.00 in   Light Drizzle
2:15 PM 34.0 °F 25.5 °F 34.0 °F 100% 30.09 in 0.8 mi SE 11.5 mph - 0.00 in   Light Drizzle
2:30 PM 35.1 °F 26.4 °F 35.1 °F 100% 30.09 in 0.5 mi ESE 12.7 mph - 0.00 in Fog Fog
2:53 PM 35.1 °F 26.9 °F 35.1 °F 100% 30.09 in 0.2 mi SE 11.5 mph - 0.00 in Fog Fog
3:27 PM 35.1 °F 27.4 °F 35.1 °F 100% 30.09 in 0.2 mi SE 10.4 mph - 0.00 in Fog Light Drizzle
3:43 PM 34.0 °F 25.5 °F 34.0 °F 100% 30.09 in 0.2 mi SE 11.5 mph - 0.00 in Fog Light Drizzle
3:53 PM 34.0 °F 26.0 °F 34.0 °F 100% 30.09 in 0.5 mi SE 10.4 mph - 0.01 in Fog Light Drizzle
4:03 PM 34.0 °F 26.0 °F 34.0 °F 100% 30.09 in 1.0 mi SE 10.4 mph - 0.00 in   Light Drizzle
4:53 PM 34.0 °F 26.0 °F 34.0 °F 100% 30.09 in 1.0 mi SE 10.4 mph - 0.03 in Rain Light Rain
5:26 PM 34.0 °F 26.0 °F 34.0 °F 100% 30.08 in 1.5 mi SE 10.4 mph - 0.03 in Rain Light Rain
5:40 PM 34.0 °F 26.0 °F 34.0 °F 100% 30.09 in 2.0 mi SE 10.4 mph - 0.04 in Rain Light Rain
5:53 PM 34.0 °F 26.6 °F 34.0 °F 100% 30.09 in 3.0 mi SE 9.2 mph - 0.05 in Rain Light Rain
6:38 PM 34.0 °F 26.6 °F 34.0 °F 100% 30.09 in 10.0 mi South 9.2 mph - 0.00 in   Overcast
6:53 PM 33.8 °F 28.6 °F 33.8 °F 100% 30.09 in 8.0 mi South 5.8 mph - N/A   Overcast
7:35 PM 33.1 °F 27.7 °F 33.1 °F 100% 30.10 in 0.8 mi South 5.8 mph - 0.01 in   Overcast
7:53 PM 33.1 °F 28.7 °F 33.1 °F 100% 30.11 in 1.0 mi South 4.6 mph - 0.02 in Rain Light Rain
8:00 PM 33.1 °F 27.7 °F 33.1 °F 100% 30.11 in 1.0 mi SSE 5.8 mph - 0.00 in Rain Light Rain
8:07 PM 33.1 °F 27.7 °F 33.1 °F 100% 30.11 in 1.0 mi SSE 5.8 mph - 0.00 in Rain Light Rain
8:20 PM 33.1 °F 26.9 °F 33.1 °F 100% 30.11 in 1.0 mi SSE 6.9 mph - 0.01 in Rain Light Rain
8:41 PM 33.1 °F 26.9 °F 33.1 °F 100% 30.11 in 2.0 mi SSE 6.9 mph - 0.02 in Rain Light Rain
8:53 PM 33.1 °F 26.1 °F 33.1 °F 100% 30.11 in 2.0 mi SSE 8.1 mph - 0.02 in Rain Light Rain
9:04 PM 33.1 °F 26.1 °F 33.1 °F 100% 30.11 in 3.0 mi SSE 8.1 mph - 0.01 in Rain Light Rain
9:53 PM 33.1 °F 26.9 °F 33.1 °F 100% 30.12 in 2.0 mi South 6.9 mph - 0.03 in Rain Light Rain
10:00 PM 33.1 °F 26.9 °F 33.1 °F 100% 30.13 in 1.8 mi South 6.9 mph - 0.00 in Rain Light Rain
10:53 PM 33.1 °F 26.9 °F 33.1 °F 100% 30.14 in 1.0 mi South 6.9 mph - 0.00 in Rain Light Rain
11:53 PM 33.1 °F 26.9 °F 33.1 °F 100% 30.15 in 1.0 mi South 6.9 mph - 0.00 in   Overcast